Time,TemperatureF,DewpointF,PressureIn,WindDirection,WindDirectionDegrees,WindSpeedMPH,WindSpeedGustMPH,Humidity,HourlyPrecipIn,Conditions,Clouds,dailyrainin,SoftwareType,DateUTC
2014-08-23 00:00:00,79.9,77.0,29.97,East,90,2.5,4.3,89,0.00,,,0.33,Graphweather,2014-08-23 04:00:00,
2014-08-23 00:05:00,79.9,77.0,29.97,ENE,67,2.2,2.2,89,0.00,,,0.00,Graphweather,2014-08-23 04:05:00,
2014-08-23 00:10:00,79.7,77.0,29.97,ESE,112,1.6,4.0,89,0.00,,,0.00,Graphweather,2014-08-23 04:10:00,
2014-08-23 00:14:00,79.7,77.0,29.97,ESE,112,1.3,3.4,89,0.00,,,0.00,Graphweather,2014-08-23 04:14:00,
2014-08-23 00:19:00,79.7,77.0,29.97,East,90,2.9,5.4,89,0.00,,,0.00,Graphweather,2014-08-23 04:19:00,
2014-08-23 00:25:00,79.9,77.0,29.97,ESE,112,2.0,3.1,89,0.00,,,0.00,Graphweather,2014-08-23 04:25:00,
2014-08-23 00:29:00,79.9,77.0,29.97,East,90,2.0,4.0,89,0.00,,,0.00,Graphweather,2014-08-23 04:29:00,
2014-08-23 00:34:00,79.9,77.0,29.97,East,90,2.2,3.4,89,0.00,,,0.00,Graphweather,2014-08-23 04:34:00,
2014-08-23 00:40:00,80.1,77.0,29.97,ESE,112,3.4,4.3,88,0.00,,,0.00,Graphweather,2014-08-23 04:40:00,
2014-08-23 00:49:00,79.9,77.0,29.97,East,90,2.5,4.3,89,0.00,,,0.00,Graphweather,2014-08-23 04:49:00,
2014-08-23 00:55:00,79.9,77.0,29.97,ENE,67,3.1,3.8,88,0.00,,,0.00,Graphweather,2014-08-23 04:55:00,
2014-08-23 01:00:00,79.9,77.0,29.97,ESE,112,2.2,4.9,88,0.00,,,0.00,Graphweather,2014-08-23 05:00:00,
2014-08-23 01:09:00,79.9,77.0,29.97,East,90,2.7,4.9,88,0.00,,,0.00,Graphweather,2014-08-23 05:09:00,
2014-08-23 01:15:00,79.9,77.0,29.97,ESE,112,2.0,4.3,88,0.00,,,0.00,Graphweather,2014-08-23 05:15:00,
2014-08-23 01:24:00,79.9,77.0,29.97,ESE,112,2.5,4.9,88,0.00,,,0.00,Graphweather,2014-08-23 05:24:00,
2014-08-23 01:30:00,79.7,77.0,29.97,ESE,112,2.2,4.0,88,0.00,,,0.00,Graphweather,2014-08-23 05:30:00,
2014-08-23 01:39:00,79.2,75.2,29.97,East,90,2.2,3.6,88,0.00,,,0.00,Graphweather,2014-08-23 05:39:00,
2014-08-23 01:45:00,79.0,75.2,29.97,ESE,112,2.2,4.0,88,0.00,,,0.00,Graphweather,2014-08-23 05:45:00,
2014-08-23 01:54:00,79.0,75.2,29.97,East,90,2.0,3.4,87,0.00,,,0.00,Graphweather,2014-08-23 05:54:00,
2014-08-23 02:00:00,79.0,75.2,29.97,East,90,2.2,2.9,87,0.00,,,0.00,Graphweather,2014-08-23 06:00:00,
2014-08-23 02:05:00,79.2,75.2,29.94,East,90,3.4,4.9,87,0.00,,,0.00,Graphweather,2014-08-23 06:05:00,
2014-08-23 02:15:00,79.2,75.2,29.94,ESE,112,3.6,4.3,87,0.00,,,0.00,Graphweather,2014-08-23 06:15:00,
2014-08-23 02:20:00,79.3,75.2,29.94,East,90,2.7,4.9,86,0.00,,,0.00,Graphweather,2014-08-23 06:20:00,
2014-08-23 02:30:00,79.2,75.2,29.94,East,90,2.5,3.8,86,0.00,,,0.00,Graphweather,2014-08-23 06:30:00,
2014-08-23 02:35:00,79.2,75.2,29.94,East,90,3.1,4.3,86,0.00,,,0.00,Graphweather,2014-08-23 06:35:00,
2014-08-23 02:44:00,79.2,75.2,29.94,East,90,2.2,5.4,86,0.00,,,0.00,Graphweather,2014-08-23 06:44:00,
2014-08-23 02:50:00,79.2,75.2,29.94,ENE,67,2.5,4.9,87,0.00,,,0.00,Graphweather,2014-08-23 06:50:00,
2014-08-23 02:59:00,79.3,75.2,29.94,SE,135,3.1,4.0,87,0.00,,,0.00,Graphweather,2014-08-23 06:59:00,
2014-08-23 03:09:00,79.2,75.2,29.94,ESE,112,2.7,4.9,87,0.00,,,0.00,Graphweather,2014-08-23 07:09:00,
2014-08-23 03:19:00,79.2,75.2,29.94,ESE,112,3.1,4.9,87,0.00,,,0.00,Graphweather,2014-08-23 07:19:00,
2014-08-23 03:24:00,79.2,75.2,29.94,ESE,112,2.0,4.7,87,0.00,,,0.00,Graphweather,2014-08-23 07:24:00,
2014-08-23 03:30:00,79.2,75.2,29.94,ESE,112,2.5,4.7,88,0.00,,,0.00,Graphweather,2014-08-23 07:30:00,
2014-08-23 03:39:00,79.2,75.2,29.94,East,90,3.4,7.8,88,0.00,,,0.00,Graphweather,2014-08-23 07:39:00,
2014-08-23 03:45:00,79.2,75.2,29.94,East,90,2.2,4.3,88,0.00,,,0.00,Graphweather,2014-08-23 07:45:00,
2014-08-23 03:54:00,79.2,77.0,29.94,East,90,2.9,4.3,89,0.00,,,0.00,Graphweather,2014-08-23 07:54:00,
2014-08-23 03:59:00,79.2,77.0,29.94,East,90,2.2,4.3,89,0.00,,,0.00,Graphweather,2014-08-23 07:59:00,
2014-08-23 04:09:00,79.2,77.0,29.94,East,90,2.2,5.8,89,0.00,,,0.00,Graphweather,2014-08-23 08:09:00,
2014-08-23 04:14:00,79.2,77.0,29.94,ESE,112,2.2,4.0,89,0.00,,,0.00,Graphweather,2014-08-23 08:14:00,
2014-08-23 04:24:00,79.2,77.0,29.94,NE,45,2.2,3.6,89,0.00,,,0.00,Graphweather,2014-08-23 08:24:00,
2014-08-23 04:29:00,79.2,77.0,29.94,East,90,2.9,4.0,89,0.00,,,0.00,Graphweather,2014-08-23 08:29:00,
2014-08-23 04:39:00,79.2,77.0,29.94,East,90,2.2,3.8,89,0.00,,,0.00,Graphweather,2014-08-23 08:39:00,
2014-08-23 04:44:00,79.2,77.0,29.94,East,90,3.1,4.0,89,0.00,,,0.00,Graphweather,2014-08-23 08:44:00,
2014-08-23 04:50:00,79.3,77.0,29.94,SE,135,2.2,3.8,89,0.00,,,0.00,Graphweather,2014-08-23 08:50:00,
2014-08-23 04:59:00,79.3,75.2,29.94,East,90,2.9,4.7,88,0.00,,,0.00,Graphweather,2014-08-23 08:59:00,
2014-08-23 05:05:00,79.3,75.2,29.94,ESE,112,2.5,4.0,88,0.00,,,0.00,Graphweather,2014-08-23 09:05:00,
2014-08-23 05:14:00,79.3,75.2,29.94,East,90,2.9,4.0,88,0.00,,,0.00,Graphweather,2014-08-23 09:14:00,
2014-08-23 05:19:00,79.3,75.2,29.94,ESE,112,2.7,4.5,88,0.00,,,0.00,Graphweather,2014-08-23 09:19:00,
2014-08-23 05:29:00,79.3,75.2,29.94,ENE,67,2.5,4.0,88,0.00,,,0.00,Graphweather,2014-08-23 09:29:00,
2014-08-23 05:34:00,79.5,75.2,29.94,East,90,3.4,5.4,88,0.00,,,0.00,Graphweather,2014-08-23 09:34:00,
2014-08-23 05:44:00,79.5,75.2,29.94,ESE,112,2.5,4.0,88,0.00,,,0.00,Graphweather,2014-08-23 09:44:00,
2014-08-23 05:49:00,79.5,75.2,29.94,ESE,112,3.4,4.3,88,0.00,,,0.00,Graphweather,2014-08-23 09:49:00,
2014-08-23 05:55:00,79.5,75.2,29.94,East,90,2.9,4.9,88,0.00,,,0.00,Graphweather,2014-08-23 09:55:00,
2014-08-23 06:03:00,79.5,77.0,29.94,East,90,2.9,4.9,89,0.00,,,0.00,Graphweather,2014-08-23 10:03:00,
2014-08-23 06:09:00,79.7,77.0,29.94,SW,225,3.4,4.0,89,0.00,,,0.00,Graphweather,2014-08-23 10:09:00,
2014-08-23 06:19:00,79.9,77.0,29.94,ENE,67,2.9,6.3,89,0.00,,,0.00,Graphweather,2014-08-23 10:19:00,
2014-08-23 06:29:00,80.1,77.0,29.94,ESE,112,2.5,4.5,88,0.00,,,0.00,Graphweather,2014-08-23 10:29:00,
2014-08-23 06:34:00,80.2,77.0,29.97,East,90,2.9,4.0,88,0.00,,,0.00,Graphweather,2014-08-23 10:34:00,
2014-08-23 06:44:00,80.4,77.0,29.97,East,90,2.7,3.6,89,0.00,,,0.00,Graphweather,2014-08-23 10:44:00,
2014-08-23 06:49:00,80.6,77.0,29.97,ESE,112,2.7,4.0,88,0.00,,,0.00,Graphweather,2014-08-23 10:49:00,
2014-08-23 06:59:00,80.6,77.0,29.97,South,180,2.5,5.6,89,0.00,,,0.00,Graphweather,2014-08-23 10:59:00,